This demonstration page uses our WeatherBlox Daily Observations layout. Learn more.

Left ArrowRight Arrow

39.51506, -84.39828

Hourly Observations for March 20, 2015

Temp ( °F °C ) Dew Point ( °F °C ) Humidity (%) Winds ( mph kmh ) Pressure ( in mb ) Visibility ( mi km ) Precip ( " mm )
12:15 am 00:15 Cloudy 43 6 37 2.8 80 80 NE 3 6 30.09 1019 10 16 N/A
12:35 am 00:35 Cloudy 42 5.8 37 2.7 81 81 N N/A 30.09 1019 10 16 N/A
12:55 am 00:55 Cloudy 42 5.8 37 2.8 81 81 N N/A 30.09 1019 10 16 N/A
1:15 am 01:15 Cloudy 42 5.8 37 2.7 81 81 ENE 3 6 30.06 1018 10 16 N/A
1:35 am 01:35 Cloudy 42 5.8 37 2.7 81 81 N 3 6 30.09 1019 10 16 N/A
1:55 am 01:55 Cloudy 43 6.1 35 1.8 74 74 ENE 5 7 30.06 1018 10 16 N/A
2:15 am 02:15 Cloudy 43 6.1 35 1.5 73 73 ENE 7 11 30.06 1018 10 16 N/A
2:35 am 02:35 Cloudy 43 6.1 35 1.7 74 74 NE 6 9 30.06 1018 10 16 N/A
2:55 am 02:55 Cloudy 43 6.1 35 1.5 73 73 NNE 3 6 30.06 1018 10 16 N/A
3:15 am 03:15 Cloudy 43 6.1 35 1.5 73 73 N N/A 30.06 1018 10 16 N/A
3:35 am 03:35 Cloudy 43 6.1 34 1.3 72 72 N N/A 30.06 1018 10 16 N/A
3:50 am 03:50 Cloudy with Light Snow 43 6 35 1.7 74 74 NNE 3 6 30.03 1017 7 11 N/A
5:00 am 05:00 Cloudy with Light Snow 42 5.5 37 2.8 83 83 N 5 7 30.06 1018 7 11 N/A
5:15 am 05:15 Cloudy with Light Snow 42 5.5 37 3 84 84 NNE 3 6 30.06 1018 5 8 N/A
5:35 am 05:35 Cloudy with Light Snow 42 5.3 37 3 85 85 NNE 5 7 30.06 1018 5 8 N/A
5:55 am 05:55 Cloudy with Light Snow 41 5 37 2.6 85 85 N 3 6 30.06 1018 4 6 N/A
6:15 am 06:15 Cloudy with Light Snow 40 4.7 37 2.5 86 86 N 5 7 30.06 1018 4 6 N/A
6:35 am 06:35 Cloudy with Mist and Fog 40 4.7 37 2.6 86 86 N 3 6 30.09 1019 5 8 N/A
6:55 am 06:55 Cloudy 40 4.7 37 2.7 87 87 N 3 6 30.09 1019 7 11 N/A
7:15 am 07:15 Cloudy with Mist and Fog 40 4.7 37 2.7 87 87 NNE 5 7 30.06 1018 5 8 N/A
7:35 am 07:35 Cloudy 40 4.7 37 2.7 87 87 N 5 7 30.09 1019 7 11 N/A
7:55 am 07:55 Cloudy 40 4.7 37 2.7 87 87 NNE 5 7 30.09 1019 7 11 N/A
8:15 am 08:15 Cloudy with Mist and Fog 40 4.7 37 2.7 87 87 N N/A 30.09 1019 5 8 N/A
8:35 am 08:35 Cloudy with Mist and Fog 40 4.7 37 2.7 87 87 N 3 6 30.09 1019 5 8 N/A
8:55 am 08:55 Cloudy with Mist and Fog 41 4.9 37 2.9 87 87 N 3 6 30.09 1019 5 8 N/A
9:15 am 09:15 Cloudy with Mist and Fog 42 5.5 38 3.2 85 85 NNE 5 7 30.09 1019 5 8 N/A
9:35 am 09:35 Cloudy with Mist and Fog 42 5.5 38 3.2 85 85 N 6 9 30.12 1020 5 8 N/A
9:55 am 09:55 Cloudy with Mist and Fog 42 5.5 38 3.1 85 85 N 5 7 30.12 1020 5 8 N/A
10:15 am 10:15 Cloudy with Mist and Fog 42 5.5 38 3.1 85 85 N 6 9 30.12 1020 5 8 N/A
10:35 am 10:35 Cloudy 42 5.8 38 3.2 84 84 N 6 9 30.12 1020 7 11 N/A
10:55 am 10:55 Cloudy 43 6.1 38 3.3 82 82 NNE 7 11 30.12 1020 10 16 N/A
11:15 am 11:15 Cloudy 44 6.7 38 3.6 81 81 NNE 3 6 30.15 1021 10 16 N/A
11:35 am 11:35 Cloudy 44 6.8 38 3.3 79 79 N 3 6 30.15 1021 10 16 N/A
11:55 am 11:55 Cloudy 46 7.8 39 4.1 78 78 NNW 3 6 30.15 1021 10 16 N/A
12:15 pm 12:15 Cloudy 46 7.7 38 3.3 74 74 N 3 6 30.15 1021 10 16 N/A
12:35 pm 12:35 Cloudy 47 8.2 39 3.8 74 74 NNE 3 6 30.15 1021 10 16 N/A
12:55 pm 12:55 Cloudy 47 8.3 39 3.7 73 73 N N/A 30.15 1021 10 16 N/A
1:15 pm 13:15 Cloudy 47 8.3 38 3.4 72 72 N N/A 30.15 1021 10 16 N/A
1:35 pm 13:35 Cloudy 49 9.6 40 4.3 70 70 NW 7 11 30.15 1021 10 16 N/A
1:55 pm 13:55 Cloudy 49 9.6 39 4 68 68 WNW 5 7 30.15 1021 10 16 N/A
2:15 pm 14:15 Cloudy 49 9.6 39 4.1 69 69 WNW 6 9 30.15 1021 10 16 N/A
2:35 pm 14:35 Cloudy 49 9.6 39 3.7 67 67 WNW 7 11 30.12 1020 10 16 N/A
2:55 pm 14:55 Cloudy 49 9.6 38 3.3 65 65 W 5 7 30.12 1020 10 16 N/A
3:15 pm 15:15 Cloudy 49 9.6 38 3.2 65 65 NW 5 7 30.12 1020 10 16 N/A
3:35 pm 15:35 Cloudy 49 9.6 38 3.5 66 66 WNW 3 6 30.12 1020 10 16 N/A
3:55 pm 15:55 Cloudy 49 9.6 38 3.2 65 65 W 3 6 30.12 1020 10 16 N/A
4:15 pm 16:15 Cloudy 49 9.6 37 3 64 64 WNW 6 9 30.12 1020 10 16 N/A
4:35 pm 16:35 Cloudy 49 9.6 38 3.2 65 65 W 7 11 30.12 1020 10 16 N/A
4:55 pm 16:55 Cloudy 49 9.6 38 3.1 64 64 WNW 3 6 30.12 1020 10 16 N/A
5:15 pm 17:15 Cloudy 49 9.6 37 2.7 62 62 W 7 11 30.12 1020 10 16 N/A
5:35 pm 17:35 Cloudy 49 9.6 37 2.7 62 62 W 5 7 30.12 1020 10 16 N/A
5:55 pm 17:55 Cloudy 49 9.6 37 2.5 62 62 W 5 7 30.12 1020 10 16 N/A
6:15 pm 18:15 Cloudy 49 9.6 36 2.4 61 61 W 7 11 30.12 1020 10 16 N/A
6:35 pm 18:35 Cloudy 49 9.6 37 3 64 64 WSW 6 9 30.12 1020 10 16 N/A
6:55 pm 18:55 Cloudy 49 9.6 38 3.4 66 66 WSW 7 11 30.12 1020 10 16 N/A
7:15 pm 19:15 Cloudy 49 9.6 38 3.5 66 66 W 7 11 30.12 1020 10 16 N/A
7:35 pm 19:35 Cloudy 49 9.6 39 3.9 68 68 WNW 5 7 30.12 1020 10 16 N/A
7:55 pm 19:55 Cloudy 49 9.6 40 4.3 70 70 WSW 5 7 30.12 1020 10 16 N/A
8:15 pm 20:15 Cloudy 49 9.6 40 4.5 71 71 W 6 9 30.15 1021 10 16 N/A
8:35 pm 20:35 Cloudy 49 9.6 40 4.5 71 71 W 5 7 30.15 1021 10 16 N/A
8:55 pm 20:55 Cloudy 49 9.6 40 4.6 71 71 WSW 3 6 30.15 1021 10 16 N/A
9:15 pm 21:15 Cloudy 49 9.6 41 5.2 74 74 SW 6 9 30.12 1020 10 16 N/A
9:35 pm 21:35 Cloudy 49 9.6 42 5.3 75 75 WSW 5 7 30.15 1021 10 16 N/A
9:55 pm 21:55 Cloudy 49 9.6 41 5.2 74 74 SW 3 6 30.15 1021 10 16 N/A
10:15 pm 22:15 Cloudy 49 9.6 41 5.2 74 74 SW 5 7 30.15 1021 10 16 N/A
10:35 pm 22:35 Cloudy 49 9.6 41 5.2 74 74 WSW 3 6 30.15 1021 10 16 N/A
10:55 pm 22:55 Cloudy 48 8.8 41 4.8 76 76 WSW 3 6 30.15 1021 10 16 N/A
11:15 pm 23:15 Cloudy 49 9.6 41 5.2 74 74 WSW 3 6 30.15 1021 10 16 N/A
11:35 pm 23:35 Cloudy 49 9.6 41 5.1 74 74 SW 5 7 30.15 1021 10 16 N/A
11:55 pm 23:55 Cloudy 49 9.6 41 4.8 72 72 WSW 3 6 30.15 1021 10 16 N/A

Powered by AerisWeather